Time,TemperatureF,DewpointF,PressureIn,WindDirection,WindDirectionDegrees,WindSpeedMPH,WindSpeedGustMPH,Humidity,HourlyPrecipIn,Conditions,Clouds,dailyrainin,SoftwareType,DateUTC
2013-07-05 00:02:00,55.0,36.0,30.60,West,265,2.0,5.0,49,0.00,,,0.29,,2013-07-05 07:02:00,
2013-07-05 00:12:00,54.0,36.0,30.60,South,185,4.0,7.0,51,0.00,,,0.29,,2013-07-05 07:12:00,
2013-07-05 00:23:00,54.0,37.0,30.60,SSW,205,3.0,8.0,52,0.00,,,0.29,,2013-07-05 07:23:00,
2013-07-05 00:33:00,53.0,37.0,30.60,SSW,201,3.0,6.0,54,0.00,,,0.29,,2013-07-05 07:33:00,
2013-07-05 00:53:00,53.0,37.0,30.58,SSW,209,3.0,6.0,55,0.00,,,0.29,,2013-07-05 07:53:00,
2013-07-05 01:02:00,54.0,38.0,30.58,SSW,210,3.0,4.0,55,0.00,,,0.29,,2013-07-05 08:02:00,
2013-07-05 01:11:00,54.0,38.0,30.58,SSW,202,3.0,5.0,55,0.00,,,0.29,,2013-07-05 08:11:00,
2013-07-05 01:22:00,54.0,38.0,30.58,SSW,210,3.0,7.0,55,0.00,,,0.29,,2013-07-05 08:22:00,
2013-07-05 01:33:00,54.0,37.0,30.58,SW,235,3.0,6.0,53,0.00,,,0.29,,2013-07-05 08:33:00,
2013-07-05 01:43:00,55.0,38.0,30.58,West,268,3.0,5.0,52,0.00,,,0.29,,2013-07-05 08:43:00,
2013-07-05 01:53:00,55.0,38.0,30.58,West,267,4.0,7.0,52,0.00,,,0.29,,2013-07-05 08:53:00,
2013-07-05 02:34:00,54.0,40.0,30.57,West,275,2.0,5.0,59,0.00,,,0.29,,2013-07-05 09:34:00,
2013-07-05 02:43:00,54.0,41.0,30.57,West,265,4.0,6.0,61,0.00,,,0.29,,2013-07-05 09:43:00,
2013-07-05 02:53:00,54.0,41.0,30.57,West,280,4.0,7.0,61,0.00,,,0.29,,2013-07-05 09:53:00,
2013-07-05 03:02:00,54.0,41.0,30.58,West,266,3.0,6.0,61,0.00,,,0.29,,2013-07-05 10:02:00,
2013-07-05 03:12:00,53.0,42.0,30.58,West,276,2.0,6.0,66,0.00,,,0.29,,2013-07-05 10:12:00,
2013-07-05 03:23:00,53.0,41.0,30.58,NW,326,3.0,5.0,64,0.00,,,0.29,,2013-07-05 10:23:00,
2013-07-05 03:34:00,54.0,42.0,30.58,North,349,3.0,6.0,63,0.00,,,0.29,,2013-07-05 10:34:00,
2013-07-05 03:43:00,53.0,41.0,30.57,NW,326,3.0,6.0,63,0.00,,,0.29,,2013-07-05 10:43:00,
2013-07-05 03:54:00,53.0,41.0,30.57,NNW,345,4.0,7.0,63,0.00,,,0.29,,2013-07-05 10:54:00,
2013-07-05 04:02:00,54.0,42.0,30.57,NNW,328,4.0,9.0,63,0.00,,,0.29,,2013-07-05 11:02:00,
2013-07-05 04:12:00,53.0,43.0,30.57,NW,310,4.0,7.0,68,0.00,,,0.29,,2013-07-05 11:12:00,
2013-07-05 04:34:00,49.0,43.0,30.57,North,358,7.0,11.0,81,0.00,,,0.29,,2013-07-05 11:34:00,
2013-07-05 04:44:00,49.0,44.0,30.57,NW,314,4.0,11.0,82,0.00,,,0.29,,2013-07-05 11:44:00,
2013-07-05 05:03:00,49.0,44.0,30.57,NNW,334,7.0,10.0,84,0.00,,,0.29,,2013-07-05 12:03:00,
2013-07-05 05:11:00,49.0,43.0,30.56,NNW,339,6.0,12.0,80,0.00,,,0.29,,2013-07-05 12:11:00,
2013-07-05 05:22:00,50.0,43.0,30.57,NNW,336,6.0,11.0,78,0.00,,,0.29,,2013-07-05 12:22:00,
2013-07-05 05:33:00,50.0,43.0,30.57,NNW,343,7.0,9.0,77,0.00,,,0.29,,2013-07-05 12:33:00,
2013-07-05 05:43:00,49.0,43.0,30.58,NW,324,5.0,10.0,80,0.00,,,0.29,,2013-07-05 12:43:00,
2013-07-05 05:53:00,50.0,42.0,30.57,NNW,348,5.0,10.0,75,0.00,,,0.29,,2013-07-05 12:53:00,
2013-07-05 06:01:00,50.0,43.0,30.58,NNW,334,5.0,9.0,76,0.00,,,0.29,,2013-07-05 13:01:00,
2013-07-05 06:11:00,50.0,43.0,30.58,NNW,347,6.0,9.0,77,0.00,,,0.29,,2013-07-05 13:11:00,
2013-07-05 06:34:00,50.0,43.0,30.57,SW,230,2.0,6.0,78,0.00,,,0.29,,2013-07-05 13:34:00,
2013-07-05 06:43:00,50.0,44.0,30.58,SW,214,2.0,6.0,80,0.00,,,0.29,,2013-07-05 13:43:00,
2013-07-05 06:53:00,50.0,44.0,30.58,South,191,4.0,7.0,80,0.00,,,0.29,,2013-07-05 13:53:00,
2013-07-05 07:12:00,50.0,44.0,30.59,South,178,7.0,10.0,80,0.00,,,0.29,,2013-07-05 14:12:00,
2013-07-05 07:22:00,50.0,44.0,30.59,SE,137,5.0,10.0,79,0.00,,,0.29,,2013-07-05 14:22:00,
2013-07-05 07:34:00,50.0,44.0,30.59,South,172,5.0,10.0,79,0.00,,,0.29,,2013-07-05 14:34:00,
2013-07-05 07:43:00,51.0,45.0,30.60,South,185,6.0,10.0,80,0.00,,,0.29,,2013-07-05 14:43:00,
2013-07-05 07:53:00,50.0,44.0,30.60,South,175,5.0,10.0,81,0.00,,,0.29,,2013-07-05 14:53:00,
2013-07-05 08:02:00,51.0,45.0,30.60,South,173,6.0,12.0,80,0.00,,,0.29,,2013-07-05 15:02:00,
2013-07-05 08:12:00,51.0,45.0,30.60,SSE,159,5.0,12.0,80,0.00,,,0.29,,2013-07-05 15:12:00,
2013-07-05 08:33:00,50.0,45.0,30.60,South,182,5.0,11.0,83,0.00,,,0.29,,2013-07-05 15:33:00,
2013-07-05 08:43:00,51.0,46.0,30.60,South,175,4.0,10.0,82,0.00,,,0.29,,2013-07-05 15:43:00,
2013-07-05 08:53:00,51.0,46.0,30.60,South,189,6.0,9.0,84,0.00,,,0.29,,2013-07-05 15:53:00,
2013-07-05 09:01:00,51.0,47.0,30.60,South,186,6.0,10.0,85,0.00,,,0.29,,2013-07-05 16:01:00,
2013-07-05 09:11:00,51.0,47.0,30.60,SSE,150,2.0,13.0,85,0.00,,,0.29,,2013-07-05 16:11:00,
2013-07-05 09:33:00,50.0,45.0,30.60,South,189,4.0,15.0,84,0.00,,,0.29,,2013-07-05 16:33:00,
2013-07-05 09:44:00,50.0,45.0,30.60,South,183,6.0,15.0,84,0.00,,,0.29,,2013-07-05 16:44:00,
2013-07-05 09:53:00,50.0,45.0,30.60,SSW,192,5.0,13.0,84,0.00,,,0.29,,2013-07-05 16:53:00,
2013-07-05 10:01:00,51.0,46.0,30.60,South,184,6.0,13.0,82,0.00,,,0.29,,2013-07-05 17:01:00,
2013-07-05 10:11:00,51.0,45.0,30.60,South,173,6.0,13.0,80,0.00,,,0.29,,2013-07-05 17:11:00,
2013-07-05 10:42:00,52.0,46.0,30.61,South,189,5.0,12.0,81,0.00,,,0.29,,2013-07-05 17:42:00,
2013-07-05 10:53:00,52.0,46.0,30.61,South,191,7.0,12.0,81,0.00,,,0.29,,2013-07-05 17:53:00,
2013-07-05 11:01:00,52.0,47.0,30.62,South,186,7.0,12.0,82,0.00,,,0.29,,2013-07-05 18:01:00,
2013-07-05 11:33:00,54.0,48.0,30.60,SSW,196,7.0,13.0,79,0.00,,,0.29,,2013-07-05 18:33:00,
2013-07-05 11:42:00,53.0,47.0,30.60,SSE,167,7.0,13.0,79,0.00,,,0.29,,2013-07-05 18:42:00,
2013-07-05 11:53:00,53.0,46.0,30.60,South,182,7.0,15.0,77,0.00,,,0.29,,2013-07-05 18:53:00,
2013-07-05 12:01:00,53.0,46.0,30.61,South,185,8.0,13.0,78,0.00,,,0.29,,2013-07-05 19:01:00,
2013-07-05 12:12:00,53.0,46.0,30.61,South,177,6.0,12.0,78,0.00,,,0.29,,2013-07-05 19:12:00,
2013-07-05 12:22:00,55.0,48.0,30.61,SSW,208,6.0,13.0,76,0.00,,,0.29,,2013-07-05 19:22:00,
2013-07-05 12:33:00,54.0,46.0,30.61,SSW,192,4.0,16.0,73,0.00,,,0.29,,2013-07-05 19:33:00,
2013-07-05 12:42:00,54.0,47.0,30.61,South,180,7.0,13.0,76,0.00,,,0.29,,2013-07-05 19:42:00,
2013-07-05 12:52:00,54.0,47.0,30.60,South,186,8.0,13.0,77,0.00,,,0.29,,2013-07-05 19:52:00,
2013-07-05 13:01:00,53.0,46.0,30.60,South,179,6.0,13.0,78,0.00,,,0.29,,2013-07-05 20:01:00,
2013-07-05 13:11:00,53.0,46.0,30.60,SSW,198,7.0,13.0,78,0.00,,,0.29,,2013-07-05 20:11:00,
2013-07-05 13:53:00,55.0,46.0,30.59,SSW,205,4.0,12.0,71,0.00,,,0.29,,2013-07-05 20:53:00,
2013-07-05 14:01:00,55.0,45.0,30.59,South,184,5.0,12.0,70,0.00,,,0.29,,2013-07-05 21:01:00,
2013-07-05 14:11:00,57.0,47.0,30.58,SSW,199,3.0,13.0,69,0.00,,,0.29,,2013-07-05 21:11:00,
2013-07-05 14:34:00,57.0,46.0,30.57,South,191,6.0,11.0,66,0.00,,,0.29,,2013-07-05 21:34:00,
2013-07-05 14:42:00,58.0,47.0,30.57,South,188,6.0,13.0,66,0.00,,,0.29,,2013-07-05 21:42:00,
2013-07-05 14:53:00,57.0,45.0,30.57,South,169,8.0,14.0,65,0.00,,,0.29,,2013-07-05 21:53:00,
2013-07-05 15:01:00,58.0,45.0,30.56,South,187,3.0,11.0,63,0.00,,,0.29,,2013-07-05 22:01:00,
2013-07-05 15:11:00,58.0,45.0,30.56,SSW,197,4.0,8.0,61,0.00,,,0.29,,2013-07-05 22:11:00,
2013-07-05 15:33:00,58.0,45.0,30.55,WSW,243,3.0,8.0,62,0.00,,,0.29,,2013-07-05 22:33:00,
2013-07-05 15:43:00,59.0,45.0,30.55,SW,225,3.0,10.0,59,0.00,,,0.29,,2013-07-05 22:43:00,
2013-07-05 15:53:00,60.0,45.0,30.56,WSW,244,5.0,10.0,57,0.00,,,0.29,,2013-07-05 22:53:00,
2013-07-05 16:02:00,60.0,45.0,30.56,WSW,246,5.0,10.0,58,0.00,,,0.29,,2013-07-05 23:02:00,
2013-07-05 16:11:00,60.0,45.0,30.55,WSW,242,5.0,10.0,58,0.00,,,0.29,,2013-07-05 23:11:00,
2013-07-05 16:32:00,59.0,46.0,30.56,West,278,6.0,14.0,61,0.00,,,0.29,,2013-07-05 23:32:00,
2013-07-05 16:42:00,60.0,46.0,30.55,NNW,330,4.0,10.0,60,0.00,,,0.29,,2013-07-05 23:42:00,
2013-07-05 16:53:00,60.0,46.0,30.56,WNW,294,3.0,13.0,59,0.00,,,0.29,,2013-07-05 23:53:00,
2013-07-05 17:01:00,60.0,47.0,30.56,WSW,249,8.0,13.0,61,0.00,,,0.29,,2013-07-06 00:01:00,
2013-07-05 17:11:00,61.0,46.0,30.56,SW,216,3.0,13.0,57,0.00,,,0.29,,2013-07-06 00:11:00,
2013-07-05 17:42:00,58.0,44.0,30.56,WSW,248,4.0,13.0,59,0.00,,,0.29,,2013-07-06 00:42:00,
2013-07-05 17:53:00,59.0,45.0,30.55,West,259,5.0,10.0,60,0.00,,,0.29,,2013-07-06 00:53:00,
2013-07-05 18:01:00,59.0,43.0,30.56,WSW,245,5.0,14.0,56,0.00,,,0.29,,2013-07-06 01:01:00,
2013-07-05 18:11:00,59.0,43.0,30.56,SW,235,6.0,12.0,56,0.00,,,0.29,,2013-07-06 01:11:00,
2013-07-05 18:22:00,58.0,43.0,30.57,West,259,7.0,12.0,57,0.00,,,0.29,,2013-07-06 01:22:00,
2013-07-05 18:42:00,56.0,42.0,30.55,West,270,7.0,12.0,59,0.00,,,0.28,,2013-07-06 01:42:00,
2013-07-05 18:52:00,56.0,42.0,30.55,West,270,7.0,12.0,59,0.00,,,0.28,,2013-07-06 01:52:00,
2013-07-05 19:02:00,56.0,43.0,30.55,West,263,5.0,11.0,61,0.00,,,0.28,,2013-07-06 02:02:00,
2013-07-05 19:33:00,54.0,43.0,30.56,SW,222,4.0,7.0,67,0.00,,,0.28,,2013-07-06 02:33:00,
2013-07-05 19:42:00,53.0,43.0,30.56,West,273,5.0,11.0,69,0.00,,,0.28,,2013-07-06 02:42:00,
2013-07-05 19:52:00,53.0,43.0,30.56,WSW,253,5.0,11.0,70,0.00,,,0.28,,2013-07-06 02:52:00,
2013-07-05 20:02:00,53.0,44.0,30.56,West,268,6.0,10.0,71,0.00,,,0.28,,2013-07-06 03:02:00,
2013-07-05 20:11:00,52.0,44.0,30.57,West,268,4.0,9.0,73,0.00,,,0.28,,2013-07-06 03:11:00,
2013-07-05 20:22:00,52.0,43.0,30.58,West,275,6.0,12.0,72,0.00,,,0.28,,2013-07-06 03:22:00,
2013-07-05 20:34:00,52.0,44.0,30.58,West,279,3.0,10.0,74,0.00,,,0.23,,2013-07-06 03:34:00,
2013-07-05 20:43:00,52.0,44.0,30.58,West,278,3.0,9.0,74,0.00,,,0.13,,2013-07-06 03:43:00,
2013-07-05 20:52:00,51.0,43.0,30.59,West,264,3.0,7.0,75,0.00,,,0.07,,2013-07-06 03:52:00,
2013-07-05 21:01:00,51.0,43.0,30.59,West,270,5.0,8.0,75,0.00,,,0.05,,2013-07-06 04:01:00,
2013-07-05 21:12:00,51.0,43.0,30.60,West,271,3.0,8.0,75,0.00,,,0.05,,2013-07-06 04:12:00,
2013-07-05 21:22:00,51.0,43.0,30.59,West,278,4.0,8.0,75,0.00,,,0.04,,2013-07-06 04:22:00,
2013-07-05 21:33:00,51.0,44.0,30.60,West,274,4.0,10.0,76,0.00,,,0.01,,2013-07-06 04:33:00,
2013-07-05 21:42:00,51.0,44.0,30.60,WNW,290,4.0,8.0,76,0.00,,,0.00,,2013-07-06 04:42:00,
2013-07-05 21:53:00,51.0,44.0,30.60,NW,312,4.0,7.0,77,0.00,,,0.00,,2013-07-06 04:53:00,
2013-07-05 22:02:00,51.0,44.0,30.60,NW,317,4.0,9.0,78,0.00,,,0.00,,2013-07-06 05:02:00,
2013-07-05 22:11:00,50.0,43.0,30.60,NW,318,4.0,6.0,78,0.00,,,0.00,,2013-07-06 05:11:00,
2013-07-05 22:22:00,51.0,44.0,30.59,NW,316,4.0,10.0,78,0.00,,,0.00,,2013-07-06 05:22:00,
2013-07-05 22:33:00,50.0,43.0,30.59,NNW,331,5.0,9.0,78,0.00,,,0.00,,2013-07-06 05:33:00,
2013-07-05 22:42:00,50.0,43.0,30.60,NNW,332,4.0,9.0,78,0.00,,,0.00,,2013-07-06 05:42:00,
2013-07-05 22:52:00,50.0,44.0,30.60,NW,322,3.0,8.0,79,0.00,,,0.00,,2013-07-06 05:52:00,
2013-07-05 23:01:00,50.0,43.0,30.60,NW,318,3.0,8.0,78,0.00,,,0.00,,2013-07-06 06:01:00,
2013-07-05 23:12:00,50.0,43.0,30.60,West,273,4.0,8.0,78,0.00,,,0.00,,2013-07-06 06:12:00,
2013-07-05 23:33:00,50.0,44.0,30.61,WNW,298,2.0,9.0,79,0.00,,,0.00,,2013-07-06 06:33:00,
2013-07-05 23:43:00,50.0,44.0,30.60,SW,232,2.0,5.0,80,0.00,,,0.00,,2013-07-06 06:43:00,
2013-07-05 23:53:00,50.0,44.0,30.60,West,278,3.0,5.0,80,0.00,,,0.00,,2013-07-06 06:53:00,